Regional Weather Roundup
Issued by NWS Albany, NY

Home | Current Version | Previous Version | Text Only | Print | Product List | Glossary On
Versions: 1 2 3 4 5 6 7 8 9 10 11 12 13 14 15 16 17 18 19 20 21 22 23 24 25 26 27 28 29 30 31 32 33 34 35 36 37 38 39 40 41 42 43 44 45 46 47 48 49 50
000
ASUS41 KALY 070110
RWRALY

NEW YORK STATE HOURLY WEATHER ROUNDUP
NATIONAL WEATHER SERVICE ALBANY NY
800 PM EST SAT FEB 06 2016

NOTE: "FAIR" INDICATES FEW OR NO CLOUDS BELOW 12,000 FEET WITH NO
SIGNIFICANT WEATHER AND/OR NO OBSTRUCTIONS TO VISIBILITY.

NYZ032-033-038>043-046>054-057>066-NYZ062>081-070200-
EAST


CITY           SKY/WX    TMP DP  RH WIND       PRES   REMARKS
ALBANY         MOCLDY    38  17  42 S9        30.20S WCI  31
GLENS FALLS    CLEAR     36  18  48 SW6       30.18S WCI  31
POUGHKEEPSIE   CLEAR     37  17  44 S3        30.25S
NEWBURGH       CLEAR     34  19  55 W6        30.25R WCI  29
MONTGOMERY     CLEAR     32  19  58 S3        30.24R
WHITE PLAINS   CLEAR     34  19  54 CALM      30.26S
ISLIP          PTCLDY    35  27  72 SW6       30.28S WCI  30
NEW YORK CITY  MOCLDY    39  20  46 SW8       30.29S WCI  33
CENTRAL PARK   CLEAR     39  19  44 SW8       30.31S WCI  33
$$

NYZ005>009-017-018-044>046-055-056-070200-
CENTRAL


CITY           SKY/WX    TMP DP  RH WIND       PRES   REMARKS
FULTON         CLEAR     33  21  61 S6        30.17F WCI  28
SYRACUSE       PTCLDY    28  22  78 CALM      30.18S
ROME           CLOUDY    27  21  78 CALM      30.20S
ELMIRA         CLEAR     27  21  78 CALM      30.17S
BINGHAMTON     MOCLDY    33  18  53 SW9       30.14S WCI  25
MONTICELLO     CLEAR     30  18  59 S6        30.20R WCI  24
$$

NYZ026>034-041>043-070200-
NORTH


CITY           SKY/WX    TMP DP  RH WIND       PRES   REMARKS
WATERTOWN      MOCLDY    35  23  61 SW13      30.14F WCI  26
FORT DRUM      NOT AVBL
MASSENA        CLOUDY    33  24  69 SW14G23   30.10S WCI  23
SARANAC LAKE   CLOUDY    29  23  78 SW14G24   30.04S WCI  18
PLATTSBURGH    CLOUDY    36  23  59 S5        30.11S WCI  32
$$

NYZ001>004-010>016-019>021-070200-
WEST


CITY           SKY/WX    TMP DP  RH WIND       PRES   REMARKS
NIAGARA FALLS  MOCLDY    32  24  72 SW12      30.16F WCI  23
BUFFALO        MOCLDY    32  25  75 SW10      30.17S WCI  24
DUNKIRK        CLEAR     28  22  78 S7        30.19F WCI  21
JAMESTOWN      CLEAR     30  18  59 SW6       30.14S WCI  24
WELLSVILLE     CLEAR     32  15  49 SW5       30.14S WCI  27
ROCHESTER      PTCLDY    31  23  72 W7        30.17F WCI  24
PENN YAN       CLEAR     25  20  81 CALM      30.17S
$$

             KEY
       WCI = WIND CHILL INDEX
       VSB = VISIBILITY
       HX  = HEAT INDEX
$$



USA.gov is the U.S. government's official web portal to all federal, state and local government web resources and services.